Location: Unspecified
(0.0000°N, 0.0000°E)
Time: 22:46:18
(UTC+01:00)

Atlas Centaur 2 - Visible Passes

Search period start: 03 December 2016 00:00
Search period end: 13 December 2016 00:00
Orbit: 459 x 1314 km, 30.4° (Epoch: 02 December)

Date Brightness Start Highest point End Pass type
(mag) Time Alt. Az. Time Alt. Az. Time Alt. Az.
03 Dec 5.3 04:08:18 10° SSW 04:13:40 18° SSE 04:18:53 10° ESE visible
03 Dec 3.9 05:56:08 10° SW 06:04:18 51° SSE 06:11:27 10° ENE visible
03 Dec 4.5 20:41:13 10° WSW 20:44:06 16° SSW 20:47:22 10° SSE visible
04 Dec 5.0 04:04:26 10° SSW 04:10:42 22° SSE 04:16:49 10° ESE visible
04 Dec 3.5 05:52:40 10° SW 06:01:08 64° SSE 06:08:36 10° ENE visible
04 Dec 4.8 20:40:11 10° SW 20:41:19 11° SSW 20:42:30 10° S visible
05 Dec 4.7 04:00:42 10° SSW 04:07:39 28° SSE 04:14:29 10° E visible
05 Dec 3.2 05:49:19 10° SW 05:57:57 81° SSE 06:05:37 10° ENE visible
06 Dec 4.4 03:59:18 18° SSW 04:04:33 34° SSE 04:11:57 10° E visible
06 Dec 3.0 05:46:05 10° WSW 05:54:43 82° NNW 06:02:31 10° NE visible
07 Dec 4.0 03:58:28 33° S 04:01:24 42° SSE 04:09:15 10° E visible
07 Dec 3.1 05:42:57 10° WSW 05:51:28 66° NNW 05:59:19 10° NE visible
08 Dec 3.6 03:57:34 52° SSE 03:58:11 53° SSE 04:06:24 10° ENE visible
08 Dec 3.2 05:40:21 12° WSW 05:48:14 53° NNW 05:56:01 10° NE visible
09 Dec 3.5 03:56:29 57° E 03:56:29 57° E 04:03:25 10° ENE visible
09 Dec 3.5 05:39:15 19° W 05:45:01 42° NNW 05:52:37 10° NE visible
10 Dec 3.9 03:55:09 41° ENE 03:55:09 41° ENE 04:00:17 10° ENE visible
10 Dec 3.7 05:37:54 24° WNW 05:41:49 34° NNW 05:49:06 10° NNE visible
11 Dec 4.4 03:53:33 28° NE 03:53:33 28° NE 03:57:04 10° NE visible
11 Dec 3.9 05:36:17 24° NW 05:38:41 28° NNW 05:45:31 10° NNE visible
12 Dec 4.8 03:51:42 19° NE 03:51:42 19° NE 03:53:43 10° NE visible
12 Dec 4.1 05:34:25 22° NW 05:35:37 22° NNW 05:41:48 10° NNE visible
